Stations météo

réclame
Mon MeteoGroup
F16-A, Pays-Bas (6206): Température de l'air & dewpoint: 15.06.2018 19:00:00 - 21.06.2018 19:00:00 (CEST)F16-A, Pays-Bas (6206): Vitesse du vent & gusts: 15.06.2018 19:00:00 - 21.06.2018 19:00:00 (CEST)F16-A, Pays-Bas (6206): Direction du vent: 15.06.2018 19:00:00 - 21.06.2018 19:00:00 (CEST)F16-A, Pays-Bas (6206): reduced air pressure: 15.06.2018 19:00:00 - 21.06.2018 19:00:00 (CEST)F16-A, Pays-Bas (6206): visibility: 15.06.2018 19:00:00 - 21.06.2018 19:00:00 (CEST)
Date & Time tt [°C] td [°C] ff [km/h] ff [knt] fx [km/h] fx [knt] dd ppp [hPa] vv [km]
21.06.2018 19:00:00 12,1 7,6 68 37 76 41 WNW 1021,7 10
21.06.2018 18:00:00 12,5 7,2 67 36 68 37 WNW 1021,4 10
21.06.2018 17:00:00 12,3 5,7 57 31 61 33 WNW 1021,1 10
21.06.2018 16:00:00 12,1 7,2 57 31 65 35 NW 1020,7 10
21.06.2018 15:00:00 12,3 7,6 54 29 58 31 NW 1020,0 10
21.06.2018 14:00:00 12,4 8,0 48 26 58 31 NW 1019,2 10
21.06.2018 13:00:00 12,3 7,9 48 26 61 33 NW 1018,6 10
21.06.2018 12:00:00 11,3 8,1 48 26 61 33 NNW 1017,5 10
21.06.2018 11:00:00 11,9 7,2 57 31 61 33 WNW 1016,0 10
21.06.2018 10:00:00 12,2 7,1 59 32 68 37 WNW 1015,1 10
21.06.2018 09:00:00 11,9 7,2 61 33 76 41 WNW 1014,7 10
21.06.2018 08:00:00 13,0 7,9 52 28 54 29 WNW 1014,1 10
21.06.2018 07:00:00 13,1 7,6 54 29 58 31 WNW 1014,1 10
21.06.2018 06:00:00 12,4 9,4 35 19 50 27 W 1014,1 10
21.06.2018 05:00:00 13,3 9,9 26 14 36 19 WNW 1014,5 10
21.06.2018 04:00:00 13,4 9,4 29 16 32 18 WNW 1015,3 10
21.06.2018 03:00:00 13,4 9,6 21 11 29 16 WNW 1015,5 10
21.06.2018 02:00:00 13,4 9,5 18 10 25 14 WNW 1015,7 10
21.06.2018 01:00:00 13,5 10,1 18 10 22 12 NW 1016,0 10
21.06.2018 00:00:00 13,7 9,8 22 12 29 16 NNW 1016,1 10
20.06.2018 23:00:00 13,8 10,5 26 14 29 16 NW 1016,2 10
20.06.2018 22:00:00 13,9 11,3 26 14 36 19 NW 1016,1 10
20.06.2018 21:00:00 14,6 12,8 35 19 36 19 WNW 1015,4 10
20.06.2018 20:00:00 15,7 14,1 22 12 29 16 W 1015,5 10
20.06.2018 19:00:00 16,0 14,2 35 19 40 21 WSW 1015,4 10
20.06.2018 18:00:00 15,4 14,2 41 22 43 23 SW 1015,4 10
20.06.2018 17:00:00 15,5 14,3 46 25 50 27 E 1015,5 10
20.06.2018 16:00:00 15,2 14,4 50 27 54 29 - 1015,7 7
20.06.2018 15:00:00 15,0 14,4 52 28 54 29 - 1016,1 7
20.06.2018 14:00:00 14,7 14,4 48 26 50 27 - 1016,4 10
20.06.2018 13:00:00 14,7 14,3 50 27 54 29 - 1016,6 10
20.06.2018 12:00:00 15,4 14,2 48 26 54 29 SSW 1016,9 10
20.06.2018 11:00:00 15,4 14,1 46 25 54 29 SSW 1016,8 10
20.06.2018 10:00:00 15,3 14,2 46 25 50 27 S 1016,8 10
20.06.2018 09:00:00 15,5 14,3 36 19 40 21 S 1017,2 18
20.06.2018 08:00:00 15,8 14,5 42 23 43 23 SW 1017,3 10
20.06.2018 07:00:00 15,7 14,5 42 23 40 21 SW 1017,3 10
20.06.2018 06:00:00 15,7 14,6 39 21 40 21 SW 1017,6 10
20.06.2018 05:00:00 15,7 14,5 39 21 40 21 SW 1017,7 10
20.06.2018 04:00:00 15,8 14,5 36 19 43 23 SW 1018,1 12
20.06.2018 03:00:00 15,4 14,4 44 24 47 25 - 1018,6 10
20.06.2018 02:00:00 15,4 14,4 46 25 47 25 - 1019,0 10
20.06.2018 01:00:00 15,7 14,5 46 25 47 25 SSW 1019,4 10
20.06.2018 00:00:00 15,7 14,5 39 21 43 23 S 1019,9 10
19.06.2018 23:00:00 15,4 14,4 34 18 36 19 S 1020,5 10
19.06.2018 22:00:00 15,1 13,1 28 15 32 18 S 1020,9 10
19.06.2018 21:00:00 14,8 11,2 14 8 18 10 S 1021,3 18
19.06.2018 20:00:00 14,8 10,9 15 8 18 10 SSW 1021,9 10
19.06.2018 19:00:00 14,7 10,8 21 11 22 12 - 1022,1 10
19.06.2018 18:00:00 14,4 10,5 18 10 22 12 SSW 1022,2 17
19.06.2018 17:00:00 14,2 10,1 15 8 18 10 SW 1022,4 10
19.06.2018 16:00:00 14,1 7,8 15 8 18 10 WSW 1022,6 10
19.06.2018 15:00:00 14,0 9,4 15 8 18 10 WSW 1022,5 10
19.06.2018 14:00:00 14,1 8,7 16 9 18 10 W 1022,4 10
19.06.2018 13:00:00 14,2 8,3 18 10 18 10 W 1022,0 10
19.06.2018 12:00:00 14,6 8,3 18 10 22 12 W 1021,7 10
19.06.2018 11:00:00 14,8 9,1 18 10 29 16 WNW 1021,2 10
19.06.2018 10:00:00 15,2 8,4 24 13 25 14 WNW 1020,7 10
19.06.2018 09:00:00 15,2 10,7 26 14 32 18 WNW 1019,9 10
19.06.2018 08:00:00 14,9 12,3 34 18 36 19 WNW 1018,9 10
19.06.2018 07:00:00 15,3 12,9 34 18 36 19 WNW 1017,9 10
19.06.2018 06:00:00 15,5 14,1 24 13 25 14 W 1017,5 10
19.06.2018 05:00:00 15,2 13,9 22 12 29 16 W 1016,6 13
19.06.2018 04:00:00 15,5 13,6 25 14 36 19 WSW 1016,2 19
19.06.2018 03:00:00 15,6 13,4 29 16 36 19 WSW 1015,7 19
19.06.2018 02:00:00 15,7 13,1 32 18 36 19 SW 1015,6 18
19.06.2018 01:00:00 15,6 12,9 35 19 36 19 SW 1015,7 10
19.06.2018 00:00:00 14,7 13,2 35 19 36 19 SW 1015,8 10
18.06.2018 23:00:00 14,6 13,3 35 19 40 21 - 1016,1 9
18.06.2018 22:00:00 14,7 13,2 37 20 40 21 S 1015,9 10
18.06.2018 21:00:00 14,9 13,1 34 18 36 19 - 1016,2 10
18.06.2018 20:00:00 14,6 13,4 28 15 32 18 SSW 1016,2 10
18.06.2018 19:00:00 14,5 13,3 26 14 25 14 - 1016,4 10
18.06.2018 18:00:00 14,6 12,2 21 11 22 12 SW 1016,4 10
18.06.2018 17:00:00 14,5 12,7 22 12 22 12 SW 1016,7 10
18.06.2018 16:00:00 14,6 12,9 18 10 22 12 WSW 1016,4 17
18.06.2018 15:00:00 14,6 13,4 26 14 25 14 WSW 1016,6 10
18.06.2018 14:00:00 14,6 13,5 26 14 29 16 WSW 1016,2 10
18.06.2018 13:00:00 14,7 13,6 29 16 29 16 SW 1015,8 10
18.06.2018 12:00:00 14,9 13,6 29 16 32 18 WSW 1015,6 10
18.06.2018 11:00:00 14,8 13,6 31 17 29 16 WSW 1015,2 10
18.06.2018 10:00:00 14,6 13,7 34 18 32 18 WSW 1014,7 10
18.06.2018 09:00:00 14,6 13,6 35 19 36 19 SW 1014,1 10
18.06.2018 08:00:00 14,3 13,7 39 21 40 21 SW 1013,9 9
18.06.2018 07:00:00 14,3 13,4 39 21 43 23 - 1013,9 10
18.06.2018 06:00:00 13,9 13,6 35 19 36 19 - 1013,9 6
18.06.2018 05:00:00 14,6 12,8 37 20 36 19 S 1014,0 10
18.06.2018 04:00:00 14,8 12,8 34 18 32 18 - 1014,0 10
18.06.2018 03:00:00 14,8 12,7 29 16 32 18 SW 1014,3 10
18.06.2018 02:00:00 14,7 12,6 29 16 29 16 - 1014,7 10
18.06.2018 01:00:00 14,3 12,8 31 17 32 18 SSW 1015,0 10
18.06.2018 00:00:00 14,5 12,5 34 18 32 18 SSW 1015,2 10
17.06.2018 23:00:00 14,3 12,3 34 18 36 19 SSW 1015,4 10
17.06.2018 22:00:00 14,2 12,4 31 17 32 18 - 1015,7 10
17.06.2018 21:00:00 14,1 12,5 29 16 29 16 SSW 1015,6 10
17.06.2018 20:00:00 14,4 11,7 26 14 25 14 - 1015,7 10
17.06.2018 19:00:00 14,2 11,5 28 15 29 16 SSW 1015,5 10
17.06.2018 18:00:00 13,9 11,9 26 14 29 16 - 1015,6 10
17.06.2018 17:00:00 14,0 11,5 26 14 25 14 SW 1015,4 10
17.06.2018 16:00:00 14,0 11,5 24 13 25 14 SW 1014,9 10
17.06.2018 15:00:00 13,8 11,4 26 14 25 14 WSW 1014,6 10
17.06.2018 14:00:00 13,8 11,3 28 15 25 14 WSW 1014,3 10
17.06.2018 13:00:00 13,8 11,2 28 15 29 16 WSW 1013,9 10
17.06.2018 12:00:00 13,7 11,2 28 15 29 16 WSW 1013,4 10
17.06.2018 11:00:00 13,8 11,2 28 15 29 16 WSW 1013,1 10
17.06.2018 10:00:00 13,8 11,3 28 15 29 16 WSW 1012,8 10
17.06.2018 09:00:00 14,0 11,0 28 15 32 18 WSW 1012,2 10
17.06.2018 08:00:00 13,9 11,1 29 16 32 18 WSW 1011,6 10
17.06.2018 07:00:00 14,0 11,4 31 17 32 18 WSW 1011,3 10
17.06.2018 06:00:00 13,6 11,2 29 16 29 16 SW 1011,0 10
17.06.2018 05:00:00 13,8 11,1 28 15 29 16 WSW 1011,0 10
17.06.2018 04:00:00 13,6 11,1 26 14 29 16 WSW 1010,8 10
17.06.2018 03:00:00 13,7 10,5 26 14 32 18 WSW 1010,3 10
17.06.2018 02:00:00 14,3 12,6 31 17 43 23 SW 1010,2 10
17.06.2018 01:00:00 14,4 12,5 44 24 47 25 SSW 1010,4 10
17.06.2018 00:00:00 14,5 12,4 42 23 43 23 S 1010,8 10
16.06.2018 23:00:00 14,4 12,3 42 23 43 23 S 1011,1 10
16.06.2018 22:00:00 14,4 12,5 35 19 36 19 S 1011,7 10
16.06.2018 21:00:00 14,5 11,2 29 16 32 18 S 1011,9 10
16.06.2018 20:00:00 14,5 10,9 21 11 22 12 S 1012,0 10
16.06.2018 19:00:00 14,4 11,8 16 9 18 10 S 1012,3 10
16.06.2018 18:00:00 14,4 11,8 13 7 14 8 - 1012,8 9
16.06.2018 17:00:00 14,4 11,4 9 5 11 6 SW 1013,0 10
16.06.2018 16:00:00 14,4 12,3 9 5 11 6 SW 1013,1 10
16.06.2018 15:00:00 14,1 12,7 5 3 11 6 - 1013,3 10
16.06.2018 14:00:00 14,2 11,1 11 6 14 8 SSW 1013,7 10
16.06.2018 13:00:00 14,3 13,4 9 5 11 6 ESE 1013,6 9
16.06.2018 12:00:00 14,2 13,2 4 2 7 4 ESE 1013,6 10
16.06.2018 11:00:00 14,5 13,9 8 4 22 12 S 1013,6 10
16.06.2018 10:00:00 14,6 13,9 21 11 22 12 SE 1013,9 10
16.06.2018 09:00:00 14,7 13,7 15 8 18 10 SE 1013,7 10
16.06.2018 08:00:00 14,5 13,5 16 9 18 10 SSE 1013,9 10
16.06.2018 07:00:00 14,6 13,4 18 10 36 19 S 1014,0 11
16.06.2018 06:00:00 15,0 13,0 25 14 29 16 SE 1013,9 16
16.06.2018 05:00:00 15,0 12,9 18 10 22 12 SE 1014,3 19
16.06.2018 04:00:00 14,8 13,1 18 10 22 12 SE 1014,8 16
16.06.2018 03:00:00 14,7 13,1 18 10 22 12 SE 1015,1 15
16.06.2018 02:00:00 14,5 13,1 14 8 18 10 ESE 1015,4 13
16.06.2018 01:00:00 14,5 12,3 11 6 18 10 ESE 1015,7 16
16.06.2018 00:00:00 14,4 11,3 13 7 18 10 E 1015,9 10
15.06.2018 23:00:00 14,3 11,5 11 6 11 6 ESE 1016,2 10
15.06.2018 22:00:00 14,3 11,4 9 5 11 6 E 1016,2 10
15.06.2018 21:00:00 14,2 11,2 5 3 7 4 E 1016,2 10
15.06.2018 20:00:00 14,1 11,5 2 1 4 2 - 1016,6 10
15.06.2018 19:00:00 14,2 11,3 2 1 4 2 - 1016,7 10

tt = Température de l'air
td = dewpoint
ff = Vitesse du vent
fx = gusts
dd = Direction du vent
ppp = reduced air pressure
vv = visibility

stations d'obs. à proximité